[[{"header":{"parameterUnit":"m.s-1","parameterCategory":1,"la1":30.2991,"la2":30.254,"lo1":-89.0895,"lo2":-89.0444,"dy":0.0017,"dx":0.0017,"nx":28,"ny":28,"refTime":"2024-04-26T09:00:00:Z","depth":0,"parameterNumber":2,"parameterNumberName":"U-component_of_WINDS"},"data":[0,0,0,0,0,0,0,0,0,0,0,0,0,0,0,0,0,0,0,0,0,0,0,0,0,0,0,0,0,0,0,0,0,0,0,0,0,0,0,0,0,0,0,0,0,0,0,0,0,0,0,0,0,0,0,0,0,0,-4.5185,-4.5186,0,-4.5272,-4.5273,-4.5274,-4.5282,-4.5281,-4.528,-4.5279,-4.5367,-4.537,-4.5373,0,0,0,0,0,0,0,0,0,0,0,0,0,-4.5025,-4.5028,-4.5185,-4.5186,-4.5187,-4.5272,-4.5273,-4.5274,-4.5282,-4.5281,-4.528,-4.5279,-4.5366,-4.5369,-4.5373,0,0,0,0,0,0,0,0,0,0,0,0,0,-4.5102,-4.5029,-4.5185,-4.5201,-4.5204,-4.5272,-4.5273,-4.5275,-4.5283,-4.5281,-4.528,-4.5279,-4.5364,-4.5369,-4.5374,-4.543,0,0,-4.5388,-4.539,0,0,0,0,0,0,0,0,-4.5097,-4.5107,-4.5198,-4.52,-4.5203,-4.5265,-4.5249,-4.5327,-4.5283,-4.5253,-4.5279,-4.5278,-4.5334,-4.5341,-4.536,-4.5434,-4.5438,-4.5389,-4.5391,-4.5394,-4.5395,0,0,0,0,0,0,0,-4.5092,-4.5104,-4.5219,-4.5199,-4.5202,-4.5204,-4.5214,-4.5263,-4.53,-4.5255,-4.5256,-4.5266,-4.5335,-4.5356,-4.5362,-4.5439,-4.5388,-4.5393,-4.5396,-4.5397,-4.5565,-4.5566,0,0,0,0,0,0,-4.5084,-4.5099,-4.5217,-4.5222,-4.5146,-4.5208,-4.5219,-4.5246,-4.5299,-4.5306,-4.5267,-4.5266,-4.5348,-4.5357,-4.5365,-4.5434,-4.5393,-4.5398,-4.5401,-4.5563,-4.5565,-4.5567,0,0,0,0,0,0,-4.508,-4.5094,-4.5213,-4.5161,-4.5176,-4.5213,-4.5243,-4.5249,-4.5269,-4.5308,-4.5315,-4.5282,-4.5347,-4.5359,-4.5414,-4.5438,-4.54,-4.5404,-4.5561,-4.5564,-4.5566,-4.5573,0,0,0,0,0,0,-4.5076,-4.5093,-4.5115,-4.5161,-4.5179,-4.5261,-4.5245,-4.5252,-4.5278,-4.5277,-4.5324,-4.533,-4.5347,-4.5407,-4.5419,-4.5443,-4.5408,-4.5559,-4.5562,-4.5565,-4.5571,-4.5576,-4.558,0,0,0,0,0,-4.507,-4.5113,-4.5116,-4.513,-4.5207,-4.5262,-4.5272,-4.5291,-4.528,-4.5302,-4.5327,-4.5328,-4.5434,-4.5413,-4.5426,-4.5452,-4.5558,-4.5561,-4.5565,-4.5569,-4.5575,-4.5579,0,0,0,0,0,0,-4.5067,-4.5119,-4.5123,-4.5182,-4.5218,-4.5263,-4.5291,-4.5297,-4.5335,-4.5333,-4.5356,-4.5366,-4.542,-4.5443,-4.5418,-4.551,-4.5495,-4.5501,-4.5493,-4.5499,-4.5503,-4.5495,-4.5412,0,0,0,0,0,-4.5073,-4.5114,-4.5157,-4.5206,-4.5223,-4.5255,-4.5279,-4.5291,-4.5329,-4.5343,-4.5373,-4.5408,-4.5449,-4.5476,-4.5516,-4.5576,-4.5585,-4.56,-4.5605,-4.5608,-4.5612,-4.5645,-4.5652,-4.5578,-4.5578,-4.5578,0,0,-4.5086,-4.512,-4.5144,-4.5206,-4.5235,-4.5276,-4.5267,-4.531,-4.5341,-4.535,-4.5403,-4.5427,-4.5468,-4.5526,-4.5553,-4.5546,-4.5635,-4.5612,-4.5615,-4.5617,-4.5649,-4.5656,-4.5662,-4.5581,-4.558,-4.558,0,0,-4.5131,-4.5161,-4.5204,-4.5234,-4.5278,-4.5299,-4.5309,-4.5355,-4.5371,-4.5426,-4.5433,-4.547,-4.5541,-4.557,-4.5594,-4.5652,-4.5654,-4.5664,-4.5685,-4.5717,-4.5723,-4.5728,-4.5747,-4.5754,-4.5669,-4.5669,-4.5669,0,-4.5141,-4.5203,-4.5226,-4.5269,-4.5296,-4.5308,-4.5351,-4.5379,-4.5434,-4.5452,-4.5444,-4.5533,-4.5562,-4.5626,-4.5641,-4.5661,-4.5673,-4.5658,-4.572,-4.5726,-4.5731,-4.575,-4.5757,-4.567,-4.567,-4.567,-4.567,0,-4.5213,-4.5257,-4.5287,-4.534,-4.537,-4.5414,-4.5442,-4.5471,-4.5481,-4.5503,-4.5559,-4.5595,-4.5642,-4.5659,-4.5669,-4.5725,-4.5719,-4.5716,-4.57,-4.5738,-4.5756,-4.5764,-4.5671,-4.5671,-4.5671,-4.5671,0,0,-4.5255,-4.5322,-4.5332,-4.5357,-4.5408,-4.5441,-4.5486,-4.5533,-4.5556,-4.5595,-4.5632,-4.5693,-4.569,-4.5717,-4.5731,-4.576,-4.5802,-4.5753,-4.5754,-4.5759,-4.5865,-4.5865,-4.5873,-4.5805,-4.5807,-4.5808,-4.5861,0,-4.5304,-4.5383,-4.5406,-4.5472,-4.5512,-4.5525,-4.5564,-4.5599,-4.5621,-4.5658,-4.5683,-4.5725,-4.5719,-4.5736,-4.5765,-4.5791,-4.5823,-4.5788,-4.5839,-4.584,-4.5825,-4.5883,-4.5883,-4.5931,-4.5868,-4.5869,-4.587,0,-4.5371,-4.5411,-4.5482,-4.5528,-4.5546,-4.558,-4.5625,-4.5661,-4.5702,-4.5716,-4.5747,-4.5759,-4.5806,-4.579,-4.5855,-4.583,-4.5853,-4.5869,-4.5872,-4.5875,-4.5855,-4.5886,-4.5947,-4.5953,-4.5882,-4.5881,-4.588,0,-4.5392,-4.5464,-4.5516,-4.5537,-4.5592,-4.5616,-4.564,-4.568,-4.5707,-4.5747,-4.5765,-4.581,-4.5834,-4.5868,-4.5892,-4.5878,-4.5954,-4.594,-4.5966,-4.5965,-4.5979,-4.5977,-4.6042,-4.5998,-4.5998,-4.5997,-4.5997,0,-4.5443,-4.5485,-4.5526,-4.5558,-4.5606,-4.5632,-4.5679,-4.5703,-4.5739,-4.5775,-4.579,-4.5824,-4.5854,-4.5892,-4.5912,-4.5961,-4.5973,-4.5985,-4.5989,-4.5982,-4.598,-4.5995,-4.5992,-4.5999,-4.5999,-4.5999,-4.5998,0,-4.5474,-4.5503,-4.556,-4.5609,-4.5622,-4.5655,-4.5696,-4.5727,-4.5751,-4.5797,-4.5809,-4.5846,-4.5892,-4.592,-4.5978,-4.5991,-4.6045,-4.6049,-4.6031,-4.6033,-4.6056,-4.6053,-4.6132,-4.6143,-4.6092,-4.6093,-4.6093,0,-4.5503,-4.5536,-4.5588,-4.5614,-4.5639,-4.568,-4.5708,-4.5735,-4.5764,-4.5814,-4.5839,-4.5886,-4.5924,-4.5997,-4.6028,-4.6073,-4.6077,-4.6101,-4.6083,-4.6075,-4.6075,-4.6072,-4.6075,-4.6103,-4.6104,-4.6104,-4.6104,0,-4.5551,-4.5564,-4.5604,-4.565,-4.5683,-4.572,-4.5757,-4.5778,-4.5811,-4.5843,-4.589,-4.592,-4.598,-4.6026,-4.6074,-4.6098,-4.6107,-4.611,-4.6118,-4.611,-4.6098,-4.6103,-4.6037,-4.6108,-4.6107,-4.6107,-4.6107,-4.6107,-4.5581,-4.5611,-4.5652,-4.5697,-4.5728,-4.5762,-4.5794,-4.5822,-4.5862,-4.5912,-4.5927,-4.5976,-4.6017,-4.6082,-4.6108,-4.6147,-4.6143,-4.6155,-4.6157,-4.6159,-4.6159,-4.6094,-4.6156,-4.6156,-4.6155,-4.6155,-4.6155,0,-4.5628,-4.5656,-4.5697,-4.5748,-4.5783,-4.579,-4.5832,-4.586,-4.5903,-4.5941,-4.5979,-4.6033,-4.6079,-4.6115,-4.6161,-4.6185,-4.619,-4.6196,-4.6194,-4.6199,-4.616,-4.6148,-4.6192,-4.6192,-4.6192,-4.6192,-4.6192,-4.6192,-4.5657,-4.5707,-4.5726,-4.5792,-4.582,-4.5868,-4.5891,-4.5923,-4.5954,-4.6014,-4.6051,-4.6075,-4.6112,-4.6162,-4.6204,-4.6213,-4.6229,-4.6234,-4.6244,-4.6206,-4.6202,-4.6198,-4.6186,-4.6237,-4.6238,-4.6279,-4.628,-4.628]},{"header":{"parameterUnit":"m.s-1","parameterCategory":1,"la1":30.2991,"la2":30.254,"lo1":-89.0895,"lo2":-89.0444,"dy":0.0017,"dx":0.0017,"nx":28,"ny":28,"refTime":"2024-04-26T09:00:00:Z","depth":0,"parameterNumber":3,"parameterNumberName":"V-component_of_WINDS"},"data":[0,0,0,0,0,0,0,0,0,0,0,0,0,0,0,0,0,0,0,0,0,0,0,0,0,0,0,0,0,0,0,0,0,0,0,0,0,0,0,0,0,0,0,0,0,0,0,0,0,0,0,0,0,0,0,0,0,0,5.7118,5.7118,0,5.7139,5.7139,5.7139,5.7149,5.7149,5.7149,5.7149,5.7167,5.7167,5.7168,0,0,0,0,0,0,0,0,0,0,0,0,0,5.7086,5.7086,5.7118,5.7118,5.7119,5.7139,5.7139,5.7139,5.7149,5.7149,5.7149,5.7149,5.7167,5.7167,5.7168,0,0,0,0,0,0,0,0,0,0,0,0,0,5.7102,5.7086,5.7118,5.7126,5.7127,5.7139,5.7139,5.7139,5.7149,5.7149,5.7149,5.7149,5.7166,5.7167,5.7168,5.7172,0,0,5.717,5.717,0,0,0,0,0,0,0,0,5.7101,5.7103,5.7125,5.7126,5.7127,5.7141,5.7134,5.715,5.7149,5.7141,5.7149,5.7149,5.7158,5.7159,5.7163,5.7173,5.7174,5.717,5.717,5.7171,5.7171,0,0,0,0,0,0,0,5.71,5.7103,5.7126,5.7125,5.7126,5.7128,5.713,5.7137,5.7149,5.7141,5.7142,5.7145,5.7159,5.7162,5.7164,5.7174,5.717,5.7171,5.7171,5.7171,5.719,5.719,0,0,0,0,0,0,5.7098,5.7102,5.7126,5.7127,5.7114,5.7129,5.7131,5.7137,5.7149,5.7151,5.7144,5.7145,5.7161,5.7163,5.7164,5.7171,5.7171,5.7171,5.7172,5.719,5.719,5.719,0,0,0,0,0,0,5.7097,5.71,5.7125,5.7114,5.7118,5.7129,5.7135,5.7137,5.7141,5.7151,5.7153,5.7146,5.7161,5.7163,5.7171,5.7172,5.7172,5.7172,5.7189,5.719,5.719,5.7184,0,0,0,0,0,0,5.7096,5.71,5.7102,5.7114,5.7118,5.7131,5.7135,5.7137,5.7142,5.7143,5.7154,5.7155,5.7161,5.717,5.7171,5.7173,5.7173,5.7189,5.7189,5.719,5.7184,5.7184,5.7184,0,0,0,0,0,5.7095,5.7098,5.7102,5.7105,5.7121,5.7131,5.7133,5.7141,5.7143,5.7145,5.7152,5.7155,5.7172,5.717,5.7172,5.7174,5.7189,5.7189,5.719,5.7184,5.7184,5.7184,0,0,0,0,0,0,5.7083,5.71,5.7104,5.7111,5.712,5.7133,5.7135,5.714,5.7148,5.7148,5.7156,5.7159,5.7166,5.717,5.7169,5.718,5.7181,5.7181,5.7176,5.7176,5.7176,5.7174,5.7173,0,0,0,0,0,5.7082,5.709,5.7103,5.7109,5.7113,5.7124,5.7128,5.7134,5.7142,5.7146,5.7153,5.7161,5.7168,5.7172,5.7179,5.7185,5.7188,5.7188,5.7187,5.7187,5.7187,5.7192,5.7192,5.719,5.719,5.719,0,0,5.7078,5.7089,5.7092,5.7107,5.7114,5.7121,5.7126,5.7133,5.7139,5.7146,5.7154,5.716,5.7169,5.7177,5.718,5.7181,5.7189,5.7187,5.7187,5.7187,5.7192,5.7193,5.7193,5.719,5.719,5.719,0,0,5.7076,5.7084,5.709,5.7098,5.711,5.7118,5.7119,5.7132,5.7137,5.7145,5.7151,5.7158,5.7169,5.7176,5.7181,5.7184,5.7187,5.7186,5.7184,5.7189,5.7189,5.7189,5.7191,5.7191,5.7186,5.7186,5.7186,0,5.707,5.7082,5.7092,5.71,5.7106,5.7116,5.7122,5.7129,5.7141,5.7145,5.7146,5.7163,5.7169,5.7179,5.718,5.7183,5.7185,5.7184,5.7188,5.7189,5.7189,5.7191,5.7191,5.7186,5.7186,5.7186,5.7186,0,5.7074,5.7083,5.7086,5.7101,5.7107,5.7114,5.7125,5.7131,5.7136,5.7144,5.7153,5.7161,5.7171,5.7174,5.7178,5.7184,5.7185,5.7187,5.7188,5.7189,5.7191,5.7191,5.7185,5.7185,5.7185,5.7185,0,0,5.7063,5.7086,5.7087,5.7094,5.7109,5.7115,5.7123,5.7134,5.7139,5.7148,5.7154,5.7165,5.7168,5.7174,5.7179,5.7183,5.7186,5.7186,5.7186,5.7186,5.7194,5.7193,5.7193,5.7189,5.7189,5.7189,5.7194,0,5.7063,5.7079,5.7089,5.71,5.7109,5.7119,5.7125,5.7135,5.7142,5.715,5.7158,5.7166,5.7169,5.7173,5.7177,5.7185,5.7188,5.7185,5.7195,5.7195,5.7193,5.7194,5.7192,5.7195,5.7194,5.7194,5.7195,0,5.7065,5.7076,5.7088,5.7104,5.7108,5.7114,5.7126,5.7133,5.7145,5.715,5.7157,5.7164,5.7172,5.7173,5.7185,5.7183,5.7188,5.7192,5.7193,5.7194,5.7195,5.7195,5.7196,5.7197,5.7196,5.7195,5.7195,0,5.7057,5.7074,5.7085,5.709,5.7109,5.7113,5.7121,5.7132,5.7139,5.7149,5.7153,5.7164,5.7169,5.7177,5.7186,5.7186,5.7197,5.7199,5.7202,5.7201,5.7203,5.7203,5.7205,5.7206,5.7206,5.7206,5.7206,0,5.7055,5.7063,5.7081,5.7088,5.7096,5.7109,5.7116,5.7125,5.7135,5.7143,5.7152,5.7159,5.717,5.7179,5.7186,5.7195,5.7197,5.7201,5.7203,5.7201,5.72,5.7204,5.7204,5.7206,5.7206,5.7206,5.7206,0,5.7047,5.706,5.7072,5.709,5.7094,5.71,5.7114,5.7121,5.713,5.7139,5.7142,5.7156,5.7166,5.7176,5.719,5.7194,5.7204,5.7206,5.72,5.7201,5.7204,5.7203,5.7209,5.721,5.721,5.721,5.721,0,5.7046,5.7052,5.7071,5.7078,5.7086,5.7096,5.7104,5.7116,5.7123,5.7138,5.7143,5.7154,5.7164,5.718,5.7191,5.7201,5.7204,5.7205,5.7205,5.7203,5.7205,5.7204,5.7205,5.7205,5.7205,5.7205,5.7205,0,5.7042,5.7048,5.706,5.7074,5.7083,5.7094,5.7105,5.711,5.7125,5.7132,5.7144,5.7152,5.7167,5.7179,5.7191,5.7198,5.7204,5.7205,5.7206,5.7203,5.72,5.7203,5.72,5.7204,5.7204,5.7204,5.7204,5.7204,5.7037,5.7044,5.7059,5.7072,5.7082,5.7093,5.71,5.7111,5.7122,5.7136,5.7143,5.7155,5.7167,5.7185,5.7192,5.7201,5.7203,5.7204,5.7205,5.7205,5.7205,5.7199,5.7203,5.7203,5.7203,5.7203,5.7203,0,5.7034,5.7045,5.7057,5.7074,5.7084,5.709,5.7104,5.7111,5.7122,5.7134,5.7145,5.7159,5.7171,5.7183,5.7195,5.72,5.7203,5.7203,5.7203,5.7204,5.7203,5.7201,5.72,5.72,5.72,5.72,5.72,5.72,5.7034,5.7046,5.7055,5.7072,5.7083,5.7096,5.7104,5.7114,5.7124,5.714,5.715,5.7159,5.7171,5.7185,5.7196,5.7199,5.7203,5.7202,5.7206,5.7204,5.7204,5.7204,5.7203,5.7203,5.7203,5.7207,5.7207,5.7207]}]]